Regional Weather Roundup
Issued by NWS

Current Version | Previous Version | Text Only | Print | Product List | Glossary On
Versions: 1 2 3 4 5 6 7 8 9 10 11 12 13 14 15 16 17 18 19 20 21 22 23 24 25 26 27 28 29 30 31 32 33 34 35 36 37 38 39 40 41 42 43 44 45 46 47 48 49 50
000
ASUS45 KREV 220110
RWRNV
NEVADA REGIONAL WEATHER ROUNDUP
NATIONAL WEATHER SERVICE RENO NV
600 PM PDT FRI JUL 21 2017

NOTE: "FAIR" INDICATES FEW OR NO CLOUDS BELOW 12,000 FEET WITH NO
SIGNIFICANT WEATHER AND/OR OBSTRUCTIONS TO VISIBILITY.

NVZ001-003-004-220200-
WESTERN NEVADA

CITY           SKY/WX    TMP DP  RH WIND       PRES   REMARKS
RENO           MOSUNNY   95  28   9 NW14      30.02F
CARSON CITY    FAIR      90  18   7 W12       30.06S
MINDEN         FAIR      88  34  14 W14G20    30.06F
FALLON         MOSUNNY   96  17   5 MISG      29.96F
LOVELOCK       SUNNY     94  31  10 S7        29.96F
HAWTHORNE      SUNNY     95  27   8 NW16      29.95S
$$

NVZ002-CAZ072-073-220200-
NORTHERN AND CENTRAL SIERRA

CITY           SKY/WX    TMP DP  RH WIND       PRES   REMARKS
S. LAKE TAHOE  SUNNY     80  35  19 S8        30.20S
TRUCKEE        SUNNY     81  30  16 W10G16    30.19S
SQUAW VLY 8000   N/A     66  36  32 W6          N/A
SUSANVILLE     SUNNY     91  21   8 SW10      30.04F
MAMMOTH LAKES  FAIR      83  28  13 NW18      30.22F
BRIDGEPORT     FAIR      83  31  15 VRB5      30.18S
$$

NVZ030-031-036-220200-
NORTHERN NEVADA

CITY           SKY/WX    TMP DP  RH WIND       PRES   REMARKS
ELKO           MOSUNNY   94  19   6 NW7G18    30.04F
WINNEMUCCA     SUNNY     95  25   8 NW17      30.00F
WENDOVER       SUNNY     95  36  12 SE9       29.97F
$$

NVZ035-037-220200-
CENTRAL NEVADA

CITY           SKY/WX    TMP DP  RH WIND       PRES   REMARKS
ELY            SUNNY     91  36  14 VRB5      30.10F
EUREKA           N/A     95  27   9 N8        30.07F
$$

NVZ013-014-220200-
SOUTH CENTRAL NEVADA

CITY           SKY/WX    TMP DP  RH WIND       PRES   REMARKS
TONOPAH        SUNNY     94  31  10 VRB6      30.06F
$$

NVZ017-020-022-220200-
SOUTHERN NEVADA

CITY           SKY/WX    TMP DP  RH WIND       PRES   REMARKS
LAS VEGAS      MOSUNNY  105  48  14 VRB5      29.80F
N. LAS VEGAS   SUNNY    104  47  14 SE10      29.79F
NELLIS AFB     SUNNY    104  52  17 SE10      29.77F
HENDERSON      SUNNY    N/A N/A N/A CALM      29.84F
MERCURY        SUNNY     99  40  13 SW10      29.90F
$$



USA.gov is the U.S. government's official web portal to all federal, state and local government web resources and services.